Track STARLINK-1156 now! 10-day predictions STARLINK-1156 is classified as:
1 45054U 20006L 21021.42767992 .00000349 00000-0 42297-4 0 9992 2 45054 53.0560 55.9961 0001306 65.6637 294.4488 15.06396415 54117